owner,sensor,date,latitude,longitude,vertical_datum,sea_water_practical_salinity,qcFlag 
DISL,ioos:station:DISL:MHPA:1,2013-08-01T00:00:00Z,30.6671,-87.9365,2.863,0.09,1111122 
DISL,ioos:station:DISL:MHPA:1,2013-08-01T00:30:00Z,30.6671,-87.9365,2.867,0.09,1111122 
DISL,ioos:station:DISL:MHPA:1,2013-08-01T01:00:00Z,30.6671,-87.9365,2.961,0.09,1111122 
DISL,ioos:station:DISL:MHPA:1,2013-08-01T01:30:00Z,30.6671,-87.9365,2.968,0.09,1111122 
DISL,ioos:station:DISL:MHPA:1,2013-08-01T02:00:00Z,30.6671,-87.9365,2.929,0.09,1111122 
DISL,ioos:station:DISL:MHPA:1,2013-08-01T02:30:00Z,30.6671,-87.9365,3.015,0.09,1111122 
DISL,ioos:station:DISL:MHPA:1,2013-08-01T03:00:00Z,30.6671,-87.9365,3.072,0.09,1111122 
DISL,ioos:station:DISL:MHPA:1,2013-08-01T03:30:00Z,30.6671,-87.9365,3.071,0.09,1111122 
DISL,ioos:station:DISL:MHPA:1,2013-08-01T04:00:00Z,30.6671,-87.9365,3.155,0.09,1111122 
DISL,ioos:station:DISL:MHPA:1,2013-08-01T04:30:00Z,30.6671,-87.9365,3.326,0.09,1111122 
DISL,ioos:station:DISL:MHPA:1,2013-08-01T05:00:00Z,30.6671,-87.9365,3.523,0.09,1111122 
DISL,ioos:station:DISL:MHPA:1,2013-08-01T05:30:00Z,30.6671,-87.9365,3.688,0.09,1111122 
DISL,ioos:station:DISL:MHPA:1,2013-08-01T06:00:00Z,30.6671,-87.9365,3.85,0.09,1111122 
DISL,ioos:station:DISL:MHPA:1,2013-08-01T06:30:00Z,30.6671,-87.9365,3.992,0.09,1111122 
DISL,ioos:station:DISL:MHPA:1,2013-08-01T07:00:00Z,30.6671,-87.9365,4.031,0.09,1111122 
DISL,ioos:station:DISL:MHPA:1,2013-08-01T07:30:00Z,30.6671,-87.9365,4.103,0.09,1111122 
DISL,ioos:station:DISL:MHPA:1,2013-08-01T08:00:00Z,30.6671,-87.9365,4.23,0.09,1111122 
DISL,ioos:station:DISL:MHPA:1,2013-08-01T08:30:00Z,30.6671,-87.9365,4.332,0.09,1111122 
DISL,ioos:station:DISL:MHPA:1,2013-08-01T09:00:00Z,30.6671,-87.9365,4.343,0.09,1111122 
DISL,ioos:station:DISL:MHPA:1,2013-08-01T09:30:00Z,30.6671,-87.9365,4.366,0.09,1111122 
DISL,ioos:station:DISL:MHPA:1,2013-08-01T10:00:00Z,30.6671,-87.9365,4.456,0.09,1111122 
DISL,ioos:station:DISL:MHPA:1,2013-08-01T10:30:00Z,30.6671,-87.9365,4.475,0.09,1111122 
DISL,ioos:station:DISL:MHPA:1,2013-08-01T11:00:00Z,30.6671,-87.9365,4.528,0.09,1111122 
DISL,ioos:station:DISL:MHPA:1,2013-08-01T11:30:00Z,30.6671,-87.9365,4.588,0.09,1111122 
DISL,ioos:station:DISL:MHPA:1,2013-08-01T12:00:00Z,30.6671,-87.9365,4.521,0.09,1111122 
DISL,ioos:station:DISL:MHPA:1,2013-08-01T12:30:00Z,30.6671,-87.9365,4.555,0.09,1111122 
DISL,ioos:station:DISL:MHPA:1,2013-08-01T13:00:00Z,30.6671,-87.9365,4.551,0.09,1111122 
DISL,ioos:station:DISL:MHPA:1,2013-08-01T13:30:00Z,30.6671,-87.9365,4.52,0.09,1111122 
DISL,ioos:station:DISL:MHPA:1,2013-08-01T14:00:00Z,30.6671,-87.9365,4.484,0.09,1111122 
DISL,ioos:station:DISL:MHPA:1,2013-08-01T14:30:00Z,30.6671,-87.9365,4.443,0.09,1111122 
DISL,ioos:station:DISL:MHPA:1,2013-08-01T15:00:00Z,30.6671,-87.9365,4.433,0.09,1111122 
DISL,ioos:station:DISL:MHPA:1,2013-08-01T15:30:00Z,30.6671,-87.9365,4.317,0.09,1111122 
DISL,ioos:station:DISL:MHPA:1,2013-08-01T16:00:00Z,30.6671,-87.9365,4.17,0.09,1111122 
DISL,ioos:station:DISL:MHPA:1,2013-08-01T16:30:00Z,30.6671,-87.9365,4.159,0.09,1111122 
DISL,ioos:station:DISL:MHPA:1,2013-08-01T17:00:00Z,30.6671,-87.9365,4.113,0.09,1111122 
DISL,ioos:station:DISL:MHPA:1,2013-08-01T17:30:00Z,30.6671,-87.9365,4.022,0.09,1111122 
DISL,ioos:station:DISL:MHPA:1,2013-08-01T18:00:00Z,30.6671,-87.9365,3.933,0.09,1111122 
DISL,ioos:station:DISL:MHPA:1,2013-08-01T18:30:00Z,30.6671,-87.9365,3.896,0.09,1111122 
DISL,ioos:station:DISL:MHPA:1,2013-08-01T19:00:00Z,30.6671,-87.9365,3.756,0.09,1111122 
DISL,ioos:station:DISL:MHPA:1,2013-08-01T19:30:00Z,30.6671,-87.9365,3.662,0.09,1111122 
DISL,ioos:station:DISL:MHPA:1,2013-08-01T20:00:00Z,30.6671,-87.9365,3.595,0.09,1111122 
DISL,ioos:station:DISL:MHPA:1,2013-08-01T20:30:00Z,30.6671,-87.9365,3.599,0.09,1111122 
DISL,ioos:station:DISL:MHPA:1,2013-08-01T21:00:00Z,30.6671,-87.9365,3.729,0.09,1111122 
DISL,ioos:station:DISL:MHPA:1,2013-08-01T21:30:00Z,30.6671,-87.9365,3.453,0.09,1111122 
DISL,ioos:station:DISL:MHPA:1,2013-08-01T22:00:00Z,30.6671,-87.9365,3.312,0.09,1111122 
DISL,ioos:station:DISL:MHPA:1,2013-08-01T22:30:00Z,30.6671,-87.9365,3.292,0.09,1111122 
DISL,ioos:station:DISL:MHPA:1,2013-08-01T23:00:00Z,30.6671,-87.9365,3.136,0.09,1111122 
DISL,ioos:station:DISL:MHPA:1,2013-08-01T23:30:00Z,30.6671,-87.9365,3.03,0.09,1111122 
DISL,ioos:station:DISL:MHPA:1,2013-08-02T00:00:00Z,30.6671,-87.9365,2.963,0.09,1111122 
DISL,ioos:station:DISL:MHPA:1,2013-08-02T00:30:00Z,30.6671,-87.9365,2.926,0.09,1111122 
DISL,ioos:station:DISL:MHPA:1,2013-08-02T01:00:00Z,30.6671,-87.9365,2.877,0.09,1111122 
DISL,ioos:station:DISL:MHPA:1,2013-08-02T01:30:00Z,30.6671,-87.9365,2.812,0.09,1111122 
DISL,ioos:station:DISL:MHPA:1,2013-08-02T02:00:00Z,30.6671,-87.9365,2.728,0.09,1111122 
DISL,ioos:station:DISL:MHPA:1,2013-08-02T02:30:00Z,30.6671,-87.9365,2.69,0.09,1111122 
DISL,ioos:station:DISL:MHPA:1,2013-08-02T03:00:00Z,30.6671,-87.9365,2.659,0.09,1111122 
DISL,ioos:station:DISL:MHPA:1,2013-08-02T03:30:00Z,30.6671,-87.9365,2.662,0.09,1111122 
DISL,ioos:station:DISL:MHPA:1,2013-08-02T04:00:00Z,30.6671,-87.9365,2.776,0.09,1111122 
DISL,ioos:station:DISL:MHPA:1,2013-08-02T04:30:00Z,30.6671,-87.9365,2.948,0.09,1111122 
DISL,ioos:station:DISL:MHPA:1,2013-08-02T05:00:00Z,30.6671,-87.9365,3.026,0.09,1111122 
DISL,ioos:station:DISL:MHPA:1,2013-08-02T05:30:00Z,30.6671,-87.9365,3.075,0.09,1111122 
DISL,ioos:station:DISL:MHPA:1,2013-08-02T06:00:00Z,30.6671,-87.9365,3.234,0.09,1111122 
DISL,ioos:station:DISL:MHPA:1,2013-08-02T06:30:00Z,30.6671,-87.9365,3.38,0.09,1111122 
DISL,ioos:station:DISL:MHPA:1,2013-08-02T07:00:00Z,30.6671,-87.9365,3.473,0.09,1111122 
DISL,ioos:station:DISL:MHPA:1,2013-08-02T07:30:00Z,30.6671,-87.9365,3.609,0.09,1111122 
DISL,ioos:station:DISL:MHPA:1,2013-08-02T08:00:00Z,30.6671,-87.9365,3.743,0.09,1111122 
DISL,ioos:station:DISL:MHPA:1,2013-08-02T08:30:00Z,30.6671,-87.9365,3.84,0.09,1111122 
DISL,ioos:station:DISL:MHPA:1,2013-08-02T09:00:00Z,30.6671,-87.9365,3.926,0.09,1111122 
DISL,ioos:station:DISL:MHPA:1,2013-08-02T09:30:00Z,30.6671,-87.9365,4.013,0.09,1111122 
DISL,ioos:station:DISL:MHPA:1,2013-08-02T10:00:00Z,30.6671,-87.9365,4.16,0.09,1111122 
DISL,ioos:station:DISL:MHPA:1,2013-08-02T10:30:00Z,30.6671,-87.9365,4.249,0.09,1111122 
DISL,ioos:station:DISL:MHPA:1,2013-08-02T11:00:00Z,30.6671,-87.9365,4.263,0.09,1111122 
DISL,ioos:station:DISL:MHPA:1,2013-08-02T11:30:00Z,30.6671,-87.9365,4.35,0.09,1111122 
DISL,ioos:station:DISL:MHPA:1,2013-08-02T12:00:00Z,30.6671,-87.9365,4.424,0.09,1111122 
DISL,ioos:station:DISL:MHPA:1,2013-08-02T12:30:00Z,30.6671,-87.9365,4.465,0.09,1111122 
DISL,ioos:station:DISL:MHPA:1,2013-08-02T13:00:00Z,30.6671,-87.9365,4.472,0.09,1111122 
DISL,ioos:station:DISL:MHPA:1,2013-08-02T13:30:00Z,30.6671,-87.9365,4.468,0.09,1111122 
DISL,ioos:station:DISL:MHPA:1,2013-08-02T14:00:00Z,30.6671,-87.9365,4.451,0.09,1111122 
DISL,ioos:station:DISL:MHPA:1,2013-08-02T14:30:00Z,30.6671,-87.9365,4.372,0.09,1111122 
DISL,ioos:station:DISL:MHPA:1,2013-08-02T15:00:00Z,30.6671,-87.9365,4.329,0.09,1111122 
DISL,ioos:station:DISL:MHPA:1,2013-08-02T15:30:00Z,30.6671,-87.9365,4.341,0.09,1111122 
DISL,ioos:station:DISL:MHPA:1,2013-08-02T16:00:00Z,30.6671,-87.9365,4.261,0.09,1111122 
DISL,ioos:station:DISL:MHPA:1,2013-08-02T16:30:00Z,30.6671,-87.9365,4.16,0.09,1111122 
DISL,ioos:station:DISL:MHPA:1,2013-08-02T17:00:00Z,30.6671,-87.9365,4.082,0.09,1111122 
DISL,ioos:station:DISL:MHPA:1,2013-08-02T17:30:00Z,30.6671,-87.9365,4.017,0.09,1111122 
DISL,ioos:station:DISL:MHPA:1,2013-08-02T18:00:00Z,30.6671,-87.9365,3.925,0.09,1111122 
DISL,ioos:station:DISL:MHPA:1,2013-08-02T18:30:00Z,30.6671,-87.9365,3.832,0.09,1111122 
DISL,ioos:station:DISL:MHPA:1,2013-08-02T19:00:00Z,30.6671,-87.9365,3.74,0.09,1111122 
DISL,ioos:station:DISL:MHPA:1,2013-08-02T19:30:00Z,30.6671,-87.9365,3.635,0.09,1111122 
DISL,ioos:station:DISL:MHPA:1,2013-08-02T20:00:00Z,30.6671,-87.9365,3.53,0.09,1111122 
DISL,ioos:station:DISL:MHPA:1,2013-08-02T20:30:00Z,30.6671,-87.9365,3.43,0.09,1111122 
DISL,ioos:station:DISL:MHPA:1,2013-08-02T21:00:00Z,30.6671,-87.9365,3.355,0.09,1111122 
DISL,ioos:station:DISL:MHPA:1,2013-08-02T21:30:00Z,30.6671,-87.9365,3.297,0.09,1111122 
DISL,ioos:station:DISL:MHPA:1,2013-08-02T22:00:00Z,30.6671,-87.9365,3.272,0.09,1111122 
DISL,ioos:station:DISL:MHPA:1,2013-08-02T22:30:00Z,30.6671,-87.9365,3.193,0.09,1111122 
DISL,ioos:station:DISL:MHPA:1,2013-08-02T23:00:00Z,30.6671,-87.9365,3.103,0.09,1111122 
DISL,ioos:station:DISL:MHPA:1,2013-08-02T23:30:00Z,30.6671,-87.9365,3.051,0.09,1111122 
DISL,ioos:station:DISL:MHPA:1,2013-08-03T00:00:00Z,30.6671,-87.9365,3.002,0.09,1111122 
DISL,ioos:station:DISL:MHPA:1,2013-08-03T00:30:00Z,30.6671,-87.9365,2.967,0.09,1111122 
DISL,ioos:station:DISL:MHPA:1,2013-08-03T01:00:00Z,30.6671,-87.9365,2.913,0.09,1111122 
DISL,ioos:station:DISL:MHPA:1,2013-08-03T01:30:00Z,30.6671,-87.9365,2.87,0.09,1111122 
DISL,ioos:station:DISL:MHPA:1,2013-08-03T02:00:00Z,30.6671,-87.9365,2.863,0.09,1111122 
DISL,ioos:station:DISL:MHPA:1,2013-08-03T02:30:00Z,30.6671,-87.9365,2.898,0.09,1111122 
DISL,ioos:station:DISL:MHPA:1,2013-08-03T03:00:00Z,30.6671,-87.9365,2.94,0.09,1111122 
DISL,ioos:station:DISL:MHPA:1,2013-08-03T03:30:00Z,30.6671,-87.9365,2.971,0.09,1111122 
DISL,ioos:station:DISL:MHPA:1,2013-08-03T04:00:00Z,30.6671,-87.9365,3.016,0.09,1111122 
DISL,ioos:station:DISL:MHPA:1,2013-08-03T04:30:00Z,30.6671,-87.9365,3.1,0.09,1111122 
DISL,ioos:station:DISL:MHPA:1,2013-08-03T05:00:00Z,30.6671,-87.9365,3.214,0.09,1111122 
DISL,ioos:station:DISL:MHPA:1,2013-08-03T05:30:00Z,30.6671,-87.9365,3.321,0.09,1111122 
DISL,ioos:station:DISL:MHPA:1,2013-08-03T06:00:00Z,30.6671,-87.9365,3.428,0.09,1111122 
DISL,ioos:station:DISL:MHPA:1,2013-08-03T06:30:00Z,30.6671,-87.9365,3.54,0.09,1111122 
DISL,ioos:station:DISL:MHPA:1,2013-08-03T07:00:00Z,30.6671,-87.9365,3.67,0.09,1111122 
DISL,ioos:station:DISL:MHPA:1,2013-08-03T07:30:00Z,30.6671,-87.9365,3.798,0.09,1111122 
DISL,ioos:station:DISL:MHPA:1,2013-08-03T08:00:00Z,30.6671,-87.9365,3.853,0.09,1111122 
DISL,ioos:station:DISL:MHPA:1,2013-08-03T08:30:00Z,30.6671,-87.9365,3.924,0.09,1111122 
DISL,ioos:station:DISL:MHPA:1,2013-08-03T09:00:00Z,30.6671,-87.9365,3.996,0.09,1111122 
DISL,ioos:station:DISL:MHPA:1,2013-08-03T09:30:00Z,30.6671,-87.9365,4.039,0.09,1111122 
DISL,ioos:station:DISL:MHPA:1,2013-08-03T10:00:00Z,30.6671,-87.9365,4.132,0.09,1111122 
DISL,ioos:station:DISL:MHPA:1,2013-08-03T10:30:00Z,30.6671,-87.9365,4.162,0.09,1111122 
DISL,ioos:station:DISL:MHPA:1,2013-08-03T11:00:00Z,30.6671,-87.9365,4.256,0.09,1111122 
DISL,ioos:station:DISL:MHPA:1,2013-08-03T11:30:00Z,30.6671,-87.9365,4.346,0.1,1111122 
DISL,ioos:station:DISL:MHPA:1,2013-08-03T12:00:00Z,30.6671,-87.9365,4.365,0.1,1111122 
DISL,ioos:station:DISL:MHPA:1,2013-08-03T12:30:00Z,30.6671,-87.9365,4.438,0.1,1111122 
DISL,ioos:station:DISL:MHPA:1,2013-08-03T13:00:00Z,30.6671,-87.9365,4.499,0.1,1111122 
DISL,ioos:station:DISL:MHPA:1,2013-08-03T13:30:00Z,30.6671,-87.9365,4.518,0.09,1111122 
DISL,ioos:station:DISL:MHPA:1,2013-08-03T14:00:00Z,30.6671,-87.9365,4.506,0.09,1111122 
DISL,ioos:station:DISL:MHPA:1,2013-08-03T14:30:00Z,30.6671,-87.9365,4.517,0.1,1111122 
DISL,ioos:station:DISL:MHPA:1,2013-08-03T15:00:00Z,30.6671,-87.9365,4.502,0.1,1111122 
DISL,ioos:station:DISL:MHPA:1,2013-08-03T15:30:00Z,30.6671,-87.9365,4.458,0.09,1111122 
DISL,ioos:station:DISL:MHPA:1,2013-08-03T16:00:00Z,30.6671,-87.9365,4.405,0.09,1111122 
DISL,ioos:station:DISL:MHPA:1,2013-08-03T16:30:00Z,30.6671,-87.9365,4.33,0.09,1111122 
DISL,ioos:station:DISL:MHPA:1,2013-08-03T17:00:00Z,30.6671,-87.9365,4.233,0.09,1111122 
DISL,ioos:station:DISL:MHPA:1,2013-08-03T17:30:00Z,30.6671,-87.9365,4.143,0.09,1111122 
DISL,ioos:station:DISL:MHPA:1,2013-08-03T18:00:00Z,30.6671,-87.9365,4.049,0.09,1111122 
DISL,ioos:station:DISL:MHPA:1,2013-08-03T18:30:00Z,30.6671,-87.9365,3.959,0.09,1111122 
DISL,ioos:station:DISL:MHPA:1,2013-08-03T19:00:00Z,30.6671,-87.9365,3.855,0.09,1111122 
DISL,ioos:station:DISL:MHPA:1,2013-08-03T19:30:00Z,30.6671,-87.9365,3.745,0.1,1111122 
DISL,ioos:station:DISL:MHPA:1,2013-08-03T20:00:00Z,30.6671,-87.9365,3.636,0.1,1111122 
DISL,ioos:station:DISL:MHPA:1,2013-08-03T20:30:00Z,30.6671,-87.9365,3.537,0.09,1111122 
DISL,ioos:station:DISL:MHPA:1,2013-08-03T21:00:00Z,30.6671,-87.9365,3.451,0.09,1111122 
DISL,ioos:station:DISL:MHPA:1,2013-08-03T21:30:00Z,30.6671,-87.9365,3.36,0.09,1111122 
DISL,ioos:station:DISL:MHPA:1,2013-08-03T22:00:00Z,30.6671,-87.9365,3.252,0.09,1111122 
DISL,ioos:station:DISL:MHPA:1,2013-08-03T22:30:00Z,30.6671,-87.9365,3.157,0.1,1111122 
DISL,ioos:station:DISL:MHPA:1,2013-08-03T23:00:00Z,30.6671,-87.9365,3.08,0.1,1111122 
DISL,ioos:station:DISL:MHPA:1,2013-08-03T23:30:00Z,30.6671,-87.9365,3.038,0.1,1111122 
DISL,ioos:station:DISL:MHPA:1,2013-08-04T00:00:00Z,30.6671,-87.9365,3.002,0.09,1111122 
DISL,ioos:station:DISL:MHPA:1,2013-08-04T00:30:00Z,30.6671,-87.9365,2.947,0.09,1111122 
DISL,ioos:station:DISL:MHPA:1,2013-08-04T01:00:00Z,30.6671,-87.9365,2.88,0.09,1111122 
DISL,ioos:station:DISL:MHPA:1,2013-08-04T01:30:00Z,30.6671,-87.9365,2.816,0.09,1111122 
DISL,ioos:station:DISL:MHPA:1,2013-08-04T02:00:00Z,30.6671,-87.9365,2.788,0.1,1111122 
DISL,ioos:station:DISL:MHPA:1,2013-08-04T02:30:00Z,30.6671,-87.9365,2.811,0.09,1111122 
DISL,ioos:station:DISL:MHPA:1,2013-08-04T03:00:00Z,30.6671,-87.9365,2.788,0.09,1111122 
DISL,ioos:station:DISL:MHPA:1,2013-08-04T03:30:00Z,30.6671,-87.9365,2.788,0.09,1111122 
DISL,ioos:station:DISL:MHPA:1,2013-08-04T04:00:00Z,30.6671,-87.9365,2.834,0.09,1111122 
DISL,ioos:station:DISL:MHPA:1,2013-08-04T04:30:00Z,30.6671,-87.9365,2.884,0.09,1111122 
DISL,ioos:station:DISL:MHPA:1,2013-08-04T05:00:00Z,30.6671,-87.9365,2.923,0.09,1111122 
DISL,ioos:station:DISL:MHPA:1,2013-08-04T05:30:00Z,30.6671,-87.9365,2.971,0.09,1111122 
DISL,ioos:station:DISL:MHPA:1,2013-08-04T06:00:00Z,30.6671,-87.9365,3.074,0.09,1111122 
DISL,ioos:station:DISL:MHPA:1,2013-08-04T06:30:00Z,30.6671,-87.9365,3.207,0.09,1111122 
DISL,ioos:station:DISL:MHPA:1,2013-08-04T07:00:00Z,30.6671,-87.9365,3.323,0.09,1111122 
DISL,ioos:station:DISL:MHPA:1,2013-08-04T07:30:00Z,30.6671,-87.9365,3.417,0.09,1111122 
DISL,ioos:station:DISL:MHPA:1,2013-08-04T08:00:00Z,30.6671,-87.9365,3.492,0.1,1111122 
DISL,ioos:station:DISL:MHPA:1,2013-08-04T08:30:00Z,30.6671,-87.9365,3.566,0.1,1111122 
DISL,ioos:station:DISL:MHPA:1,2013-08-04T09:00:00Z,30.6671,-87.9365,3.582,0.09,1111122 
DISL,ioos:station:DISL:MHPA:1,2013-08-04T09:30:00Z,30.6671,-87.9365,3.602,0.1,1111122 
DISL,ioos:station:DISL:MHPA:1,2013-08-04T10:00:00Z,30.6671,-87.9365,3.634,0.1,1111122 
DISL,ioos:station:DISL:MHPA:1,2013-08-04T10:30:00Z,30.6671,-87.9365,3.645,0.1,1111122 
DISL,ioos:station:DISL:MHPA:1,2013-08-04T11:00:00Z,30.6671,-87.9365,3.711,0.1,1111122 
DISL,ioos:station:DISL:MHPA:1,2013-08-04T11:30:00Z,30.6671,-87.9365,3.799,0.1,1111122 
DISL,ioos:station:DISL:MHPA:1,2013-08-04T12:00:00Z,30.6671,-87.9365,3.864,0.1,1111122 
DISL,ioos:station:DISL:MHPA:1,2013-08-04T12:30:00Z,30.6671,-87.9365,3.943,0.1,1111122 
DISL,ioos:station:DISL:MHPA:1,2013-08-04T13:00:00Z,30.6671,-87.9365,4.025,0.1,1111122 
DISL,ioos:station:DISL:MHPA:1,2013-08-04T13:30:00Z,30.6671,-87.9365,4.11,0.1,1111122 
DISL,ioos:station:DISL:MHPA:1,2013-08-04T14:00:00Z,30.6671,-87.9365,4.117,0.1,1111122 
DISL,ioos:station:DISL:MHPA:1,2013-08-04T14:30:00Z,30.6671,-87.9365,4.151,0.1,1111122 
DISL,ioos:station:DISL:MHPA:1,2013-08-04T15:00:00Z,30.6671,-87.9365,4.17,0.1,1111122 
DISL,ioos:station:DISL:MHPA:1,2013-08-04T15:30:00Z,30.6671,-87.9365,4.148,0.1,1111122 
DISL,ioos:station:DISL:MHPA:1,2013-08-04T16:00:00Z,30.6671,-87.9365,4.139,0.1,1111122 
DISL,ioos:station:DISL:MHPA:1,2013-08-04T16:30:00Z,30.6671,-87.9365,4.1,0.1,1111122 
DISL,ioos:station:DISL:MHPA:1,2013-08-04T17:00:00Z,30.6671,-87.9365,4.065,0.1,1111122 
DISL,ioos:station:DISL:MHPA:1,2013-08-04T17:30:00Z,30.6671,-87.9365,4.05,0.1,1111122 
DISL,ioos:station:DISL:MHPA:1,2013-08-04T18:00:00Z,30.6671,-87.9365,3.988,0.1,1111122 
DISL,ioos:station:DISL:MHPA:1,2013-08-04T18:30:00Z,30.6671,-87.9365,3.918,0.1,1111122 
DISL,ioos:station:DISL:MHPA:1,2013-08-04T19:00:00Z,30.6671,-87.9365,3.873,0.1,1111122 
DISL,ioos:station:DISL:MHPA:1,2013-08-04T19:30:00Z,30.6671,-87.9365,3.8,0.1,1111122 
DISL,ioos:station:DISL:MHPA:1,2013-08-04T20:00:00Z,30.6671,-87.9365,3.72,0.1,1111122 
DISL,ioos:station:DISL:MHPA:1,2013-08-04T20:30:00Z,30.6671,-87.9365,3.636,0.1,1111122 
DISL,ioos:station:DISL:MHPA:1,2013-08-04T21:00:00Z,30.6671,-87.9365,3.56,0.1,1111122 
DISL,ioos:station:DISL:MHPA:1,2013-08-04T21:30:00Z,30.6671,-87.9365,3.47,0.1,1111122 
DISL,ioos:station:DISL:MHPA:1,2013-08-04T22:00:00Z,30.6671,-87.9365,3.396,0.1,1111122 
DISL,ioos:station:DISL:MHPA:1,2013-08-04T22:30:00Z,30.6671,-87.9365,3.322,0.1,1111122 
DISL,ioos:station:DISL:MHPA:1,2013-08-04T23:00:00Z,30.6671,-87.9365,3.222,0.1,1111122 
DISL,ioos:station:DISL:MHPA:1,2013-08-04T23:30:00Z,30.6671,-87.9365,3.082,0.1,1111122 
DISL,ioos:station:DISL:MHPA:1,2013-08-05T00:00:00Z,30.6671,-87.9365,2.963,0.1,1111122 
DISL,ioos:station:DISL:MHPA:1,2013-08-05T00:30:00Z,30.6671,-87.9365,2.881,0.1,1111122 
DISL,ioos:station:DISL:MHPA:1,2013-08-05T01:00:00Z,30.6671,-87.9365,2.79,0.1,1111122 
DISL,ioos:station:DISL:MHPA:1,2013-08-05T01:30:00Z,30.6671,-87.9365,2.741,0.1,1111122 
DISL,ioos:station:DISL:MHPA:1,2013-08-05T02:00:00Z,30.6671,-87.9365,2.734,0.1,1111122 
DISL,ioos:station:DISL:MHPA:1,2013-08-05T02:30:00Z,30.6671,-87.9365,2.705,0.1,1111122 
DISL,ioos:station:DISL:MHPA:1,2013-08-05T03:00:00Z,30.6671,-87.9365,2.75,0.1,1111122 
DISL,ioos:station:DISL:MHPA:1,2013-08-05T03:30:00Z,30.6671,-87.9365,2.817,0.1,1111122 
DISL,ioos:station:DISL:MHPA:1,2013-08-05T04:00:00Z,30.6671,-87.9365,2.728,0.1,1111122 
DISL,ioos:station:DISL:MHPA:1,2013-08-05T04:30:00Z,30.6671,-87.9365,2.71,0.1,1111122 
DISL,ioos:station:DISL:MHPA:1,2013-08-05T05:00:00Z,30.6671,-87.9365,2.751,0.1,1111122 
DISL,ioos:station:DISL:MHPA:1,2013-08-05T05:30:00Z,30.6671,-87.9365,2.735,0.1,1111122 
DISL,ioos:station:DISL:MHPA:1,2013-08-05T06:00:00Z,30.6671,-87.9365,2.778,0.1,1111122 
DISL,ioos:station:DISL:MHPA:1,2013-08-05T06:30:00Z,30.6671,-87.9365,2.877,0.1,1111122 
DISL,ioos:station:DISL:MHPA:1,2013-08-05T07:00:00Z,30.6671,-87.9365,2.98,0.1,1111122 
DISL,ioos:station:DISL:MHPA:1,2013-08-05T07:30:00Z,30.6671,-87.9365,3.101,0.1,1111122 
DISL,ioos:station:DISL:MHPA:1,2013-08-05T08:00:00Z,30.6671,-87.9365,3.267,0.1,1111122 
DISL,ioos:station:DISL:MHPA:1,2013-08-05T08:30:00Z,30.6671,-87.9365,3.383,0.1,1111122 
DISL,ioos:station:DISL:MHPA:1,2013-08-05T09:00:00Z,30.6671,-87.9365,3.515,0.1,1111122 
DISL,ioos:station:DISL:MHPA:1,2013-08-05T09:30:00Z,30.6671,-87.9365,3.585,0.1,1111122 
DISL,ioos:station:DISL:MHPA:1,2013-08-05T10:00:00Z,30.6671,-87.9365,3.593,0.1,1111122 
DISL,ioos:station:DISL:MHPA:1,2013-08-05T10:30:00Z,30.6671,-87.9365,3.68,0.1,1111122 
DISL,ioos:station:DISL:MHPA:1,2013-08-05T11:00:00Z,30.6671,-87.9365,3.817,0.1,1111122 
DISL,ioos:station:DISL:MHPA:1,2013-08-05T11:30:00Z,30.6671,-87.9365,3.82,0.1,1111122 
DISL,ioos:station:DISL:MHPA:1,2013-08-05T12:00:00Z,30.6671,-87.9365,3.835,0.1,1111122 
DISL,ioos:station:DISL:MHPA:1,2013-08-05T12:30:00Z,30.6671,-87.9365,3.94,0.1,1111122 
DISL,ioos:station:DISL:MHPA:1,2013-08-05T13:00:00Z,30.6671,-87.9365,4.011,0.1,1111122 
DISL,ioos:station:DISL:MHPA:1,2013-08-05T13:30:00Z,30.6671,-87.9365,4.025,0.1,1111122 
DISL,ioos:station:DISL:MHPA:1,2013-08-05T14:00:00Z,30.6671,-87.9365,4.062,0.1,1111122 
DISL,ioos:station:DISL:MHPA:1,2013-08-05T14:30:00Z,30.6671,-87.9365,4.106,0.1,1111122 
DISL,ioos:station:DISL:MHPA:1,2013-08-05T15:00:00Z,30.6671,-87.9365,4.171,0.1,1111122 
DISL,ioos:station:DISL:MHPA:1,2013-08-05T15:30:00Z,30.6671,-87.9365,4.185,0.1,1111122 
DISL,ioos:station:DISL:MHPA:1,2013-08-05T16:00:00Z,30.6671,-87.9365,4.176,0.1,1111122 
DISL,ioos:station:DISL:MHPA:1,2013-08-05T16:30:00Z,30.6671,-87.9365,4.182,0.1,1111122 
DISL,ioos:station:DISL:MHPA:1,2013-08-05T17:00:00Z,30.6671,-87.9365,4.186,0.1,1111122 
DISL,ioos:station:DISL:MHPA:1,2013-08-05T17:30:00Z,30.6671,-87.9365,4.148,0.1,1111122 
DISL,ioos:station:DISL:MHPA:1,2013-08-05T18:00:00Z,30.6671,-87.9365,4.085,0.1,1111122 
DISL,ioos:station:DISL:MHPA:1,2013-08-05T18:30:00Z,30.6671,-87.9365,4.018,0.1,1111122 
DISL,ioos:station:DISL:MHPA:1,2013-08-05T19:00:00Z,30.6671,-87.9365,3.946,0.1,1111122 
DISL,ioos:station:DISL:MHPA:1,2013-08-05T19:30:00Z,30.6671,-87.9365,3.872,0.1,1111122 
DISL,ioos:station:DISL:MHPA:1,2013-08-05T20:00:00Z,30.6671,-87.9365,3.839,0.1,1111122 
DISL,ioos:station:DISL:MHPA:1,2013-08-05T20:30:00Z,30.6671,-87.9365,3.711,0.1,1111122 
DISL,ioos:station:DISL:MHPA:1,2013-08-05T21:00:00Z,30.6671,-87.9365,3.593,0.1,1111122 
DISL,ioos:station:DISL:MHPA:1,2013-08-05T21:30:00Z,30.6671,-87.9365,3.458,0.1,1111122 
DISL,ioos:station:DISL:MHPA:1,2013-08-05T22:00:00Z,30.6671,-87.9365,3.343,0.1,1111122 
DISL,ioos:station:DISL:MHPA:1,2013-08-05T22:30:00Z,30.6671,-87.9365,3.244,0.1,1111122 
DISL,ioos:station:DISL:MHPA:1,2013-08-05T23:00:00Z,30.6671,-87.9365,3.151,0.1,1111122 
DISL,ioos:station:DISL:MHPA:1,2013-08-05T23:30:00Z,30.6671,-87.9365,3.113,0.1,1111122 
DISL,ioos:station:DISL:MHPA:1,2013-08-06T00:00:00Z,30.6671,-87.9365,3.043,0.1,1111122 
DISL,ioos:station:DISL:MHPA:1,2013-08-06T00:30:00Z,30.6671,-87.9365,2.887,0.1,1111122 
DISL,ioos:station:DISL:MHPA:1,2013-08-06T01:00:00Z,30.6671,-87.9365,2.748,0.1,1111122 
DISL,ioos:station:DISL:MHPA:1,2013-08-06T01:30:00Z,30.6671,-87.9365,2.618,0.1,1111122 
DISL,ioos:station:DISL:MHPA:1,2013-08-06T02:00:00Z,30.6671,-87.9365,2.504,0.1,1111122 
DISL,ioos:station:DISL:MHPA:1,2013-08-06T02:30:00Z,30.6671,-87.9365,2.42,0.1,1111122 
DISL,ioos:station:DISL:MHPA:1,2013-08-06T03:00:00Z,30.6671,-87.9365,2.355,0.1,1111122 
DISL,ioos:station:DISL:MHPA:1,2013-08-06T03:30:00Z,30.6671,-87.9365,2.353,0.1,1111122 
DISL,ioos:station:DISL:MHPA:1,2013-08-06T04:00:00Z,30.6671,-87.9365,2.39,0.1,1111122 
DISL,ioos:station:DISL:MHPA:1,2013-08-06T04:30:00Z,30.6671,-87.9365,2.374,0.1,1111122 
DISL,ioos:station:DISL:MHPA:1,2013-08-06T05:00:00Z,30.6671,-87.9365,2.335,0.1,1111122 
DISL,ioos:station:DISL:MHPA:1,2013-08-06T05:30:00Z,30.6671,-87.9365,2.379,0.1,1111122 
DISL,ioos:station:DISL:MHPA:1,2013-08-06T06:00:00Z,30.6671,-87.9365,2.428,0.1,1111122 
DISL,ioos:station:DISL:MHPA:1,2013-08-06T06:30:00Z,30.6671,-87.9365,2.489,0.1,1111122 
DISL,ioos:station:DISL:MHPA:1,2013-08-06T07:00:00Z,30.6671,-87.9365,2.599,0.1,1111122 
DISL,ioos:station:DISL:MHPA:1,2013-08-06T07:30:00Z,30.6671,-87.9365,2.758,0.1,1111122 
DISL,ioos:station:DISL:MHPA:1,2013-08-06T08:00:00Z,30.6671,-87.9365,2.923,0.1,1111122 
DISL,ioos:station:DISL:MHPA:1,2013-08-06T08:30:00Z,30.6671,-87.9365,3.073,0.1,1111122 
DISL,ioos:station:DISL:MHPA:1,2013-08-06T09:00:00Z,30.6671,-87.9365,3.213,0.1,1111122 
DISL,ioos:station:DISL:MHPA:1,2013-08-06T09:30:00Z,30.6671,-87.9365,3.371,0.1,1111122 
DISL,ioos:station:DISL:MHPA:1,2013-08-06T10:00:00Z,30.6671,-87.9365,3.448,0.1,1111122 
DISL,ioos:station:DISL:MHPA:1,2013-08-06T10:30:00Z,30.6671,-87.9365,3.507,0.1,1111122 
DISL,ioos:station:DISL:MHPA:1,2013-08-06T11:00:00Z,30.6671,-87.9365,3.557,0.1,1111122 
DISL,ioos:station:DISL:MHPA:1,2013-08-06T11:30:00Z,30.6671,-87.9365,3.633,0.1,1111122 
DISL,ioos:station:DISL:MHPA:1,2013-08-06T12:00:00Z,30.6671,-87.9365,3.675,0.1,1111122 
DISL,ioos:station:DISL:MHPA:1,2013-08-06T12:30:00Z,30.6671,-87.9365,3.731,0.1,1111122 
DISL,ioos:station:DISL:MHPA:1,2013-08-06T13:00:00Z,30.6671,-87.9365,3.804,0.1,1111122 
DISL,ioos:station:DISL:MHPA:1,2013-08-06T13:30:00Z,30.6671,-87.9365,3.903,0.1,1111122 
DISL,ioos:station:DISL:MHPA:1,2013-08-06T14:00:00Z,30.6671,-87.9365,3.942,0.1,1111122 
DISL,ioos:station:DISL:MHPA:1,2013-08-06T14:30:00Z,30.6671,-87.9365,4.02,0.1,1111122 
DISL,ioos:station:DISL:MHPA:1,2013-08-06T15:00:00Z,30.6671,-87.9365,4.102,0.1,1111122 
DISL,ioos:station:DISL:MHPA:1,2013-08-06T15:30:00Z,30.6671,-87.9365,4.106,0.09,1111122 
DISL,ioos:station:DISL:MHPA:1,2013-08-06T16:00:00Z,30.6671,-87.9365,4.074,0.1,1111122 